This is the latest recevied weather packets stored in our database for station/object LX0APE-4. If no packets are shown the sender has not sent any weather packets the latest 10 day(s).
| Time | Temp. | Humidity | Pressure | Rain* | Wind** | Luminosity | Snow |
|---|---|---|---|---|---|---|---|
| 1777659121 | 25.56° C | 17% | 5019.1 hPa | 0 mm | - | - | - |
| 1777658821 | 26.11° C | 16% | 5019 hPa | 0 mm | - | - | - |
| 1777658521 | 27.78° C | 15% | 5019.1 hPa | 0 mm | - | - | - |
| 1777658221 | 30° C | 14% | 5018.9 hPa | 0 mm | - | - | - |
| 1777657921 | 29.44° C | 14% | 5018.9 hPa | 0 mm | - | - | - |
| 1777657621 | 29.44° C | 14% | 5019 hPa | 0 mm | - | - | - |
| 1777657321 | 31.11° C | 13% | 5019 hPa | 0 mm | - | - | - |
| 1777657021 | 33.33° C | 11% | 5019 hPa | 0 mm | - | - | - |
| 1777656721 | 33.89° C | 12% | 5018.9 hPa | 0 mm | - | - | - |
| 1777656421 | 33.89° C | 12% | 5018.9 hPa | 0 mm | - | - | - |
| 1777656121 | 34.44° C | 12% | 5019 hPa | 0 mm | - | - | - |
| 1777655821 | 34.44° C | 12% | 5019 hPa | 0 mm | - | - | - |
| 1777655521 | 35° C | 12% | 5018.9 hPa | 0 mm | - | - | - |
| 1777655221 | 35° C | 12% | 5019 hPa | 0 mm | - | - | - |
| 1777654921 | 35.56° C | 12% | 5019.1 hPa | 0 mm | - | - | - |
| 1777654621 | 35.56° C | 12% | 5019 hPa | 0 mm | - | - | - |
| 1777654321 | 35.56° C | 12% | 5019 hPa | 0 mm | - | - | - |
| 1777654021 | 35.56° C | 12% | 5019.1 hPa | 0 mm | - | - | - |
| 1777653721 | 35.56° C | 12% | 5018.9 hPa | 0 mm | - | - | - |
| 1777653421 | 35° C | 12% | 5019 hPa | 0 mm | - | - | - |
| 1777653121 | 34.44° C | 12% | 5018.9 hPa | 0 mm | - | - | - |
| 1777652821 | 35.56° C | 11% | 5019 hPa | 0 mm | - | - | - |
| 1777652521 | 36.67° C | 10% | 5019.2 hPa | 0 mm | - | - | - |
| 1777652221 | 36.67° C | 11% | 5019.1 hPa | 0 mm | - | - | - |
| 1777651921 | 37.22° C | 10% | 5019 hPa | 0 mm | - | - | - |
* Rain latest hour (hover to see other rain measurements)
** Current wind speed in m/s (hover to see current wind gust speed)